Location: Apalco
(33.3585°N, 93.4602°W)
Time: 06:26:50
(UTC+00:00)

Nauka - Pass Details

Date: 04 October 2021
Orbit: 417 x 423 km, 51.6° (Epoch: 20 October)

Event Time Altitude Azimuth Distance (km) Brightness Sun altitude
Rises 02:08:54 0° 313° (NW) 2,361 ? -28.6°
Reaches altitude 10° 02:11:00 10° 314° (NW) 1,496 ? -29.0°
Enters shadow 02:11:38 15° 314° (NW) 1,244 ? -29.1°
